Other Public Products
Issued by NWS Charleston, SC

Current Version | Previous Version | Text Only | Print | Product List | Glossary On
Versions: 1 2 3 4 5 6 7 8 9 10 11 12 13 14 15 16 17 18 19 20 21 22 23 24 25 26 27 28 29 30 31 32 33 34 35 36 37 38 39 40 41 42 43 44 45 46 47 48 49 50
000 FPUS82 KCHS 160227 OPUCHS TEST...KCHS/KSAV Gateway Observations...TEST National Weather Service Charleston SC 900 PM EST MON JAN 15 2018 NOTE: "fair" indicates few or no clouds below 12,000 feet with no significant weather and/or obstructions to visibility. SCZ050-WAZ558-NCZ071-TXZ119-213-PAZ071-DCZ001-FLZ074-172-MI076- NYZ176-178-MAZ016-IL014-TNZ027-NJZ106-GAZ044-MD014-160300- ...Gateway Observations for Charleston International... CITY SKY/WX TMP DP RH WIND PRES REMARKS Chas Airport FAIR 35 20 54 N3 30.47R Seattle CLOUDY 58 36 43 SE16G26 29.85F Charlotte FAIR 33 12 41 E5 30.44S WCI 29 Dallas DFW DRIZZLE 37 24 59 N28G39 30.45R WCI 25 Dallas Love LGT RAIN 36 26 67 N22G30 30.48R WCI 25 Philladelphia CLOUDY 30 23 75 NE5 30.52R WCI 25 Wash National CLOUDY 31 25 78 SE6 30.51F WCI 25 Baltimore CLOUDY 28 21 75 CALM 30.49F Miami LGT RAIN 65 62 90 N6 30.24R Detroit FLURRIES 21 19 92 CALM 30.27R Newark FAIR 26 18 71 NE6 30.52F WCI 19 Laguardia FAIR 26 17 68 E8 30.52F WCI 18 J F K FAIR 23 17 78 NE7 30.54F WCI 15 Boston Logan CLOUDY 20 5 52 NW10 30.56F WCI 9 Ft. Lauderdale MOCLDY 67 60 78 NE16G22 30.23S Chicago O`Hare LGT SNOW 12 7 80 W10 30.28R WCI -1 Chicago Midway LGT SNOW 12 7 80 W15G22 30.31R WCI -4 Houston Bush CLOUDY 57 47 69 SE10 30.30S Houston Hobby CLOUDY 55 48 77 E8 30.30R Nashville CLOUDY 36 27 69 NW8 30.38R WCI 30 Atlanta FAIR 40 26 57 SE3 30.40R $$ GAZ044-118-TXZ119-213-NCZ071-DCZ001-MDZ014-506-PAZ021-071-NJZ106- NYZ176-178-MAZ106-OHZ011-021-055-MIZ076-KYZ091-ILZ014-INZ047- MNZ060-ONZ431-160300- ...Gateway Observations for Savannah International... CITY SKY/WX TMP DP RH WIND PRES REMARKS Savannah Arpt FAIR 36 25 64 NE5 30.47R WCI 32 Atlanta FAIR 40 26 57 SE3 30.40R Charlotte FAIR 33 12 41 E5 30.44S WCI 29 Dallas DFW DRIZZLE 37 24 59 N28G39 30.45R WCI 25 Houston Bush CLOUDY 57 47 69 SE10 30.30S Wash National CLOUDY 31 25 78 SE6 30.51F WCI 25 Wash Dulles FAIR 21 18 88 CALM 30.48R Baltimore CLOUDY 28 21 75 CALM 30.49F Philadelphia CLOUDY 30 23 75 NE5 30.52R WCI 25 Newark FAIR 26 18 71 NE6 30.52F WCI 19 Laguardia FAIR 26 17 68 E8 30.52F WCI 18 J F K FAIR 23 17 78 NE7 30.54F WCI 15 Boston CLOUDY 20 5 52 NW10 30.56F WCI 9 Pittsburg CLOUDY 24 24 100 SE5 30.26F WCI 18 Akron LGT SNOW 26 22 84 S10 30.25F FOG WCI 16 Cleveland FLURRIES 27 22 81 S9 30.30R WCI 18 Cincinnati LGT SNOW 27 27 100 SW6 30.31S FOG WCI 20 Columbus LGT SNOW 26 26 99 SW6 30.31S WCI 20 Detroit FLURRIES 21 19 92 CALM 30.27R Chicago O`Hare LGT SNOW 12 7 80 W10 30.28R WCI -1 Minneapolis FLURRIES 3 -2 79 NW13 30.53R WCI -14 Indianapolis MOCLDY 9 3 77 W12 30.39R WCI -6 Toronto Canada LGT SNOW 18 14 86 NE8 30.33F WCI 7 $$

USA.gov is the U.S. government's official web portal to all federal, state and local government web resources and services.